Regional Weather Roundup
Issued by NWS

Home | Current Version | Previous Version | Graphics & Text | Print | Product List | Glossary On
Versions: 1 2 3 4 5 6 7 8 9 10 11 12 13 14 15 16 17 18 19 20 21 22 23 24 25 26 27 28 29 30 31 32 33 34 35 36 37 38 39 40 41 42 43 44 45 46 47 48 49 50
000
ASUS43 KBIS 302210
RWRND

NORTH DAKOTA REGIONAL WEATHER ROUNDUP
NATIONAL WEATHER SERVICE BISMARCK ND
500 PM CDT TUE SEP 30 2014

NOTE: "FAIR" INDICATES FEW OR NO CLOUDS BELOW 12,000 FEET WITH NO
SIGNIFICANT WEATHER AND/OR OBSTRUCTIONS TO VISIBILITY.


NDZ001>003-009>011-017-302300-
NORTHWEST NORTH DAKOTA

CITY           SKY/WX    TMP DP  RH WIND       PRES   REMARKS
WILLISTON      LGT RAIN  53  51  93 E6        29.54S
MINOT          CLOUDY    50  48  93 E14       29.57F FOG
MINOT AFB      CLOUDY    50  50 100 E16       29.58R FOG
$$

NDZ018>021-031>035-040>046-302300-
SOUTHWEST NORTH DAKOTA

CITY           SKY/WX    TMP DP  RH WIND       PRES   REMARKS
BISMARCK       CLOUDY    53  52  96 E20G26    29.46F
DICKINSON      LGT RAIN  53  52  96 NE8       29.47S FOG
GARRISON         N/A     52  50  93 E16G24    29.53F
HETTINGER ARPT CLOUDY    56  53  90 N9        29.45S
$$

NDZ004>008-012>016-024-026-027-054-302300-
NORTHEAST NORTH DAKOTA

CITY           SKY/WX    TMP DP  RH WIND       PRES   REMARKS
GRAND FORKS    LGT RAIN  57  49  74 SE12G23   29.69F
GRND FRKS AFB  LGT RAIN  55  54  94 E10       29.69F
DEVILS LAKE    CLOUDY    55  43  62 E18G25    29.63F
$$

NDZ022-023-025-028>030-036>039-047>053-302300-
SOUTHEAST NORTH DAKOTA

CITY           SKY/WX    TMP DP  RH WIND       PRES   REMARKS
FARGO          CLOUDY    58  50  75 SE18      29.67F
JAMESTOWN      CLOUDY    53  48  83 SE18G31   29.59F
$$




USA.gov is the U.S. government's official web portal to all federal, state and local government web resources and services.